Content
SEND FEEDBACK

Daily
Averages
Monthly
Summary
United States of America

HARRISONBURG, VIRGINIA


Home > North America > United States > Virginia
Elevation: 1186 feet     Latitude: 38 16N     Longitude: 078 54W

WEATHER
 
SELECT A DAY
Number of Records: 467,913;   Date Range: 1/1/95 - 12/17/14
 
SHARE

PRINT THIS DATA

[ ← Previous Day ]
WEATHER ALMANAC - JULY 13, 2014
[ Next Day → ]
[ °C ]   °F
Weather ElementAverageHighLow
Temperature77 °F90.9 °F (2:55 pm)65.1 °F (11:55 pm)
Dewpoint65.2 °F73.6 °F (7:15 pm)61.3 °F (1:35 am)
Humidity69.6 %89 % (12:15 am)40 % (1:55 pm)
Barometer30.08 in30.17 in (6:35 am)29.99 in (2:55 pm)
Wind Speed4.7 mph13.8 mph (5:55 pm)
Wind Gust29.9 mph (5:55 pm)
Weather ElementAverage
Visibility8.8 mi
Wind DirectionESE (119.6 °)

Weather ElementTotal
Precipitation0.16 in
Cooling Degree Days13 (Base 65)
Growing Degree Days28 (Base 50)
Averaged from 72 records on July 13, 2014
WEATHER CONDITIONS BREAKOUT
WIND DIRECTION BREAKOUT
WEATHER BY HOUR - JULY 13, 2014
[ °C ]   °F
Local TimeTemperatureDewpointHumidityBarometerVisibilityWind DirectionWind SpeedGust SpeedPrecipitationEventsConditions
12:15 AM69.6 °F64.9 °F85 %30.17 in10.0 miCalmClear
12:35 AM68.9 °F65.1 °F88 %30.16 in7.0 miCalmClear
12:55 AM68.9 °F64.9 °F87 %30.16 in7.0 miCalmClear
1:15 AM68.5 °F64.4 °F87 %30.16 in7.0 miCalmScattered Clouds
1:35 AM68.4 °F64.4 °F87 %30.15 in10.0 miCalmScattered Clouds
1:55 AM67.1 °F63.3 °F88 %30.14 in7.0 miCalmScattered Clouds
2:15 AM67.1 °F63.5 °F88 %30.14 in7.0 miCalmClear
2:35 AM66.9 °F63.5 °F89 %30.14 in7.0 miCalmClear
2:55 AM66.9 °F63.5 °F89 %30.13 in7.0 miCalmClear
3:15 AM66.7 °F63.1 °F88 %30.13 in7.0 miCalmClear
3:35 AM65.8 °F62.6 °F89 %30.13 in7.0 miCalmClear
3:55 AM66.6 °F63.1 °F89 %30.13 in7.0 miCalmMostly Cloudy
4:15 AM66.9 °F63.1 °F88 %30.14 in7.0 miCalmScattered Clouds
4:35 AM67.5 °F63.1 °F86 %30.13 in2.5 miCalmHaze
4:55 AM66.7 °F62.4 °F86 %30.13 in2.5 miSSE (150°)3.5 mphHaze
5:15 AM66.7 °F62.8 °F87 %30.13 in7.0 miCalmMostly Cloudy
5:35 AM65.3 °F61.9 °F89 %30.12 in7.0 miCalmScattered Clouds
5:55 AM65.7 °F62.4 °F89 %30.12 in7.0 miCalmClear
6:15 AM65.1 °F61.7 °F89 %30.12 in5.0 miCalmClear
6:35 AM66.0 °F62.8 °F89 %30.13 in5.0 miCalmMostly Cloudy
6:55 AM67.6 °F63.7 °F87 %30.13 in7.0 miCalmOvercast
7:15 AM68.7 °F63.9 °F84 %30.13 in10.0 miCalmMostly Cloudy
7:35 AM70.2 °F64.2 °F81 %30.13 in10.0 miCalmScattered Clouds
7:55 AM71.4 °F64.6 °F79 %30.13 in10.0 miCalmClear
8:15 AM75.0 °F64.2 °F69 %30.13 in10.0 miSSW (200°)4.6 mphScattered Clouds
8:35 AM76.3 °F64.0 °F66 %30.13 in10.0 miSSE (160°)3.5 mphScattered Clouds
8:55 AM77.4 °F63.5 °F62 %30.13 in7.0 miSouth (180°)5.8 mphClear
9:15 AM79.2 °F64.2 °F60 %30.12 in10.0 miSouth (180°)5.8 mphClear
9:35 AM80.4 °F64.4 °F58 %30.12 in10.0 miWSW (240°)6.9 mphClear
9:55 AM81.1 °F64.2 °F56 %30.11 in10.0 miSW (220°)11.5 mphClear
10:15 AM83.1 °F63.9 °F52 %30.11 in10.0 miSSW (210°)10.4 mphClear
10:35 AM83.8 °F63.5 °F50 %30.11 in10.0 miSW (220°)9.2 mphScattered Clouds
10:55 AM83.8 °F63.5 °F50 %30.11 in10.0 miSSW (210°)9.2 mphScattered Clouds
11:15 AM85.3 °F64.0 °F49 %30.10 in10.0 miSW (230°)11.5 mphScattered Clouds
11:35 AM85.1 °F63.7 °F49 %30.10 in10.0 miSSW (200°)8.1 mphMostly Cloudy
11:55 AM86.0 °F63.0 °F46 %30.10 in10.0 miSW (220°)6.9 mphScattered Clouds
12:15 PM87.3 °F63.3 °F45 %30.09 in10.0 miSSW (210°)11.5 mph16.1 mphClear
12:35 PM85.8 °F63.3 °F47 %30.09 in10.0 miSSW (210°)10.4 mphScattered Clouds
12:55 PM88.0 °F62.1 °F42 %30.08 in10.0 miWSW (250°)9.2 mph17.3 mphScattered Clouds
1:15 PM88.0 °F62.1 °F42 %30.08 in10.0 miSSW (210°)10.4 mphClear
1:35 PM88.9 °F61.3 °F40 %30.08 in10.0 miWSW (240°)6.9 mph16.1 mphClear
1:55 PM88.7 °F63.3 °F43 %30.07 in10.0 miSSE (160°)8.1 mphScattered Clouds
2:15 PM87.6 °F63.7 °F45 %30.06 in10.0 miSouth (170°)6.9 mphMostly Cloudy
2:35 PM88.0 °F64.0 °F45 %30.05 in10.0 miSouth (170°)9.2 mphScattered Clouds
2:55 PM90.1 °F64.0 °F42 %30.05 in10.0 miSouth (180°)10.4 mphClear
3:15 PM88.5 °F64.2 °F44 %30.03 in10.0 miSSW (210°)10.4 mph16.1 mphMostly Cloudy
3:35 PM90.5 °F63.9 °F41 %30.02 in10.0 miSSW (210°)13.8 mph19.6 mphMostly Cloudy
3:55 PM90.9 °F63.9 °F41 %30.02 in10.0 miSouth (170°)10.4 mph17.3 mphScattered Clouds
4:15 PM88.9 °F66.6 °F47 %30.01 in10.0 miSouth (170°)11.5 mphScattered Clouds
4:35 PM88.2 °F67.5 °F50 %30.01 in10.0 miSouth (170°)12.7 mph17.3 mphScattered Clouds
4:55 PM85.8 °F67.1 °F53 %30.00 in10.0 miSSE (160°)9.2 mphScattered Clouds
5:15 PM85.1 °F68.0 °F56 %29.99 in10.0 miSSE (160°)9.2 mphMostly Cloudy
5:35 PM85.1 °F68.2 °F57 %30.00 in10.0 miSouth (190°)10.4 mph16.1 mphThunderstormThunderstorm
5:55 PM74.5 °F69.1 °F83 %30.03 in2.0 miWest (280°)4.6 mph29.9 mph0.16 inRain-ThunderstormHeavy Thunderstorms and Rain
6:15 PM76.8 °F70.9 °F82 %30.01 in10.0 miCalmOvercast
6:35 PM77.0 °F72.1 °F85 %30.01 in7.0 miCalmMostly Cloudy
6:55 PM78.1 °F73.4 °F85 %30.01 in7.0 miCalmScattered Clouds
7:15 PM79.0 °F73.6 °F83 %30.01 in10.0 miCalmScattered Clouds
7:35 PM79.5 °F71.8 °F77 %30.01 in10.0 miSouth (190°)4.6 mphOvercast
7:55 PM79.0 °F70.3 °F75 %30.00 in10.0 miSouth (190°)6.9 mphMostly Cloudy
8:15 PM78.8 °F69.1 °F72 %30.00 in10.0 miSouth (190°)5.8 mphMostly Cloudy
8:35 PM77.0 °F69.8 °F78 %30.00 in10.0 miSouth (170°)4.6 mphScattered Clouds
8:55 PM76.5 °F68.9 °F77 %30.01 in10.0 miSouth (180°)5.8 mphClear
9:15 PM76.8 °F68.0 °F74 %30.02 in10.0 miSouth (170°)5.8 mphClear
9:35 PM76.3 °F67.1 °F73 %30.03 in10.0 miSouth (170°)5.8 mphScattered Clouds
9:55 PM75.0 °F67.5 °F77 %30.03 in10.0 miSouth (170°)5.8 mphClear
10:15 PM76.3 °F66.2 °F71 %30.03 in10.0 miSouth (180°)4.6 mphClear
10:35 PM75.9 °F66.2 °F72 %30.02 in10.0 miSouth (190°)4.6 mphClear
10:55 PM75.7 °F66.6 °F73 %30.02 in10.0 miSW (220°)3.5 mphClear
11:15 PM74.3 °F66.7 °F77 %30.01 in10.0 miCalmClear
11:35 PM73.4 °F67.1 °F81 %30.01 in10.0 miSW (230°)3.5 mphClear
11:55 PM72.9 °F67.1 °F82 %30.01 in10.0 miSW (220°)3.5 mphClear
Hourly data recorded from KSHD, located miles away from Harrisonburg, Virginia







STORIES FROM OUR PARTNERS